Location: Lecco
(45.8566°N, 9.3977°E)
Time: 06:30:37
(UTC+02:00)

Vanguard 2 - All Passes

Search period start: 18 August 2019 00:00
Search period end: 28 August 2019 00:00
Orbit: 553 x 2938 km, 32.9° (Epoch: 17 August)

Date Brightness Start Highest point End Pass type
(mag) Time Alt. Az. Time Alt. Az. Time Alt. Az.
18 Aug - 14:29:47 10° SSW 14:35:48 24° SE 14:44:19 10° E daylight
18 Aug - 16:35:19 10° SW 16:44:06 43° SSE 16:57:38 10° ESE daylight
18 Aug - 18:43:03 10° WSW 18:54:05 43° S 19:09:29 10° SE daylight
18 Aug - 20:52:53 10° W 21:04:33 29° SSW 21:18:21 10° SSE visible
18 Aug - 23:11:01 10° SW 23:14:14 11° SW 23:17:29 10° SW visible
19 Aug - 14:46:48 10° SSW 14:53:14 28° SSE 15:02:41 10° E daylight
19 Aug - 16:52:57 10° WSW 17:01:51 43° S 17:15:32 10° ESE daylight
19 Aug - 19:01:00 10° WSW 19:11:54 40° SSW 19:26:51 10° SE daylight
19 Aug - 21:11:36 10° WSW 21:22:11 24° SSW 21:34:27 10° SSE visible
20 Aug - 13:01:51 10° SSE 13:03:38 11° SE 13:05:35 10° ESE daylight
20 Aug - 15:04:03 10° SW 15:10:44 32° SSE 15:20:54 10° ESE daylight
20 Aug - 17:10:41 10° WSW 17:19:38 43° S 17:33:20 10° ESE daylight
20 Aug - 19:19:05 10° WSW 19:29:42 35° SSW 19:43:58 10° SE daylight
20 Aug - 21:30:55 10° WSW 21:39:47 18° SW 21:49:46 10° S visible
21 Aug - 13:17:13 10° S 13:20:53 15° SE 13:25:29 10° ESE daylight
21 Aug - 15:21:30 10° SW 15:28:20 35° SSE 15:38:58 10° ESE daylight
21 Aug - 17:28:29 10° WSW 17:37:27 41° S 17:51:00 10° ESE daylight
21 Aug - 19:37:21 10° WSW 19:47:28 30° SSW 20:00:45 10° SSE daylight
21 Aug - 21:51:43 10° WSW 21:57:22 13° SW 22:03:27 10° SSW visible
22 Aug - 13:33:47 10° SSW 13:38:15 20° SSE 13:44:14 10° ESE daylight
22 Aug - 15:39:03 10° SW 15:46:01 37° S 15:56:56 10° ESE daylight
22 Aug - 17:46:23 10° WSW 17:55:16 38° S 18:08:28 10° SE daylight
22 Aug - 19:55:52 10° WSW 20:05:14 24° SSW 20:17:05 10° SSE daylight
23 Aug - 13:50:49 10° SSW 13:55:42 24° SSE 14:02:37 10° ESE daylight
23 Aug - 15:56:43 10° WSW 16:03:46 38° S 16:14:47 10° ESE daylight
23 Aug - 18:04:24 10° WSW 18:13:06 33° SSW 18:25:43 10° SE daylight
23 Aug - 20:14:53 10° WSW 20:22:58 19° SSW 20:32:44 10° S daylight
24 Aug - 14:08:06 10° SW 14:13:14 27° SSE 14:20:47 10° ESE daylight
24 Aug - 16:14:29 10° WSW 16:21:32 36° S 16:32:31 10° ESE daylight
24 Aug - 18:22:34 10° WSW 18:30:56 28° SSW 18:42:39 10° SSE daylight
24 Aug - 20:35:02 10° WSW 20:40:41 13° SW 20:47:04 10° S visible
25 Aug - 12:21:47 10° SSE 12:23:42 12° SE 12:25:50 10° SE daylight
25 Aug - 14:25:33 10° SW 14:30:52 30° SSE 14:38:48 10° ESE daylight
25 Aug - 16:32:20 10° WSW 16:39:21 34° S 16:50:05 10° SE daylight
25 Aug - 18:41:00 10° WSW 18:48:45 23° SSW 18:59:10 10° SSE daylight
26 Aug - 12:38:04 10° S 12:41:07 15° SSE 12:44:52 10° ESE daylight
26 Aug - 14:43:09 10° SW 14:48:33 31° S 14:56:42 10° ESE daylight
26 Aug - 16:50:17 10° WSW 16:57:11 30° S 17:07:26 10° SE daylight
26 Aug - 18:59:52 10° WSW 19:06:34 18° SSW 19:15:02 10° S daylight
27 Aug - 12:55:03 10° SSW 12:58:38 19° SSE 13:03:16 10° ESE daylight
27 Aug - 15:00:52 10° WSW 15:06:18 30° S 15:14:29 10° ESE daylight
27 Aug - 17:08:25 10° WSW 17:15:01 26° SSW 17:24:29 10° SE daylight
27 Aug - 19:19:48 10° SW 19:24:23 13° SSW 19:29:41 10° S daylight
